GORIZONT 23 [-]

Last updated on Sept. 19, 2020, 5:46 a.m. UTC

1 21533U 91046A   20262.45286576 -.00000048  00000-0  00000+0 0  9991
2 21533  15.1908 357.6977 0005738 310.9285  59.5350  0.98908982 99980
UTC
Height (km)
Latitude
Longitude
Inclination
Orbital Period
UTC large
Height (km)
Speed (km/s)
/
Latitude / Longitude
Inclination (degrees)
Orbital Period (minutes)
Azimuth
Elevation
Range (km)
Doppler Factor
iOS Compass Heading
iOS Angle

Next 30 passes for location: Hong Kong

Rise time Rise Azimuth (degrees) Set time Set Azimuth (degrees) Duration Max altitude (degrees)

No matching passes for this satellites